Wind_Speed
12 6 7 10 7 9 12 18 24 25 24 26 24 19 15 13 9 7 11 13 9 7 12 12 10 9 8 7 6 8 9 7 6 6 4 2 7 13 12 10 10 12 15 17 18 20 21 23 24 25 26 28 29 30 31 32 33 33 34 36 38 38 39 42 46 47 46 46 47 47 47 47 47 48 47 45 41 39 39 40 41 40 38 37 38 41 42
14 10 8 9 7 7 8 12 18 23 24 25 24 22 19 17 13 8 9 15 14 9 10 12 10 7 5 3 1 3 3 3 4 3 1 4 4 6 10 10 9 9 12 15 16 18 19 21 23 25 25 26 28 29 29 31 33 33 33 36 38 38 39 42 46 45 43 44 46 47 47 46 47 47 46 45 44 42 40 38 38 39 37 34 33 35 39
13 12 9 8 7 6 7 7 10 17 24 24 22 21 20 17 16 12 8 9 11 9 6 5 6 4 2 3 3 3 4 4 4 4 4 4 5 2 3 6 7 8 10 11 11 12 14 16 20 23 25 26 26 27 29 30 32 32 33 35 37 39 40 41 42 44 44 45 45 46 46 46 46 47 46 46 45 44 43 40 38 38 38 36 34 32 34
10 12 11 10 8 7 8 9 10 12 15 17 17 16 15 13 13 12 9 7 7 5 3 2 1 1 4 5 6 8 9 8 7 7 7 6 5 5 3 2 3 7 10 10 9 9 10 11 14 18 22 25 26 27 28 29 29 31 33 34 36 39 39 38 40 43 46 47 46 46 47 45 46 46 46 47 46 46 46 45 43 41 41 41 39 36 34
9 14 14 11 9 8 10 11 12 10 9 11 13 11 11 11 10 8 8 7 6 5 4 6 6 6 7 7 7 8 7 7 8 8 8 7 6 5 4 5 6 6 7 8 8 8 8 10 12 14 17 22 26 27 26 27 28 30 33 34 35 37 38 38 40 43 45 46 46 47 47 46 45 45 45 46 46 47 47 46 45 45 45 45 44 41 39
9 11 10 10 12 11 9 8 10 12 12 12 12 11 12 12 10 8 7 6 5 6 7 8 8 7 5 4 4 5 4 5 8 9 10 9 8 7 6 6 8 6 4 4 5 7 8 9 10 12 15 20 23 23 24 27 29 31 33 33 34 37 39 39 40 42 44 45 45 45 45 45 45 45 45 45 45 45 45 45 45 46 46 46 45 44 43
8 8 7 10 13 11 8 8 10 13 15 15 15 15 14 14 13 13 12 9 7 6 5 4 4 3 3 4 6 6 6 8 9 11 12 11 10 9 8 6 5 4 3 4 6 8 8 9 9 10 12 16 19 21 23 27 30 32 33 34 34 36 39 40 41 42 44 44 43 43 43 44 44 44 44 44 44 44 43 42 43 44 45 45 44 44 45
6 6 8 9 6 4 6 8 6 7 11 16 17 16 16 15 14 13 12 12 10 7 6 4 2 3 6 7 8 9 11 14 15 16 17 15 13 11 8 7 6 7 10 12 12 12 11 10 10 10 11 13 16 19 22 25 29 32 33 35 36 36 39 42 43 43 44 44 43 43 42 42 43 43 43 43 43 43 41 38 37 39 40 40 39 40 42
6 6 8 7 3 2 5 8 6 5 8 11 11 12 13 14 13 9 7 7 5 3 4 5 4 5 6 6 9 14 18 18 16 16 16 15 12 8 7 7 8 11 14 14 13 14 14 13 11 11 12 12 15 19 21 24 27 30 33 36 38 38 39 40 41 41 42 43 43 43 42 42 43 43 43 43 42 42 41 37 34 35 36 34 32 33 37
7 7 9 9 8 7 7 8 8 8 9 8 6 7 8 9 10 8 5 4 4 5 7 7 4 3 4 7 9 10 10 9 8 9 11 9 6 7 8 9 11 11 10 11 12 14 15 15 14 13 13 13 15 19 22 24 26 29 33 36 39 40 38 37 37 38 40 42 42 42 42 42 42 41 41 41 40 40 41 38 35 33 33 33 33 34 36
9 10 10 10 10 7 6 9 12 10 7 6 5 6 7 5 4 5 6 7 7 7 7 5 3 3 6 8 4 5 9 11 11 11 11 11 10 9 9 10 10 11 14 17 17 16 15 14 13 13 14 15 16 19 22 24 25 29 33 34 35 37 37 35 36 37 38 39 40 41 41 41 40 39 39 39 39 38 39 38 37 34 32 33 35 36 36
10 10 9 9 7 2 1 3 8 8 6 5 7 9 7 4 5 3 2 5 4 2 4 3 4 6 7 6 5 10 12 12 11 11 11 11 11 11 11 10 12 15 17 17 14 10 9 10 9 9 11 14 16 19 21 23 25 27 30 30 29 30 32 32 33 36 36 36 37 38 39 38 38 37 37 37 37 37 36 35 35 34 33 33 33 34 34
11 11 10 9 6 2 2 3 6 6 5 6 7 6 2 6 6 4 4 4 3 4 4 4 3 5 7 11 14 16 15 13 12 11 11 11 11 11 11 12 15 14 12 10 9 8 9 13 12 10 10 11 14 17 19 22 23 23 23 25 26 26 29 30 30 32 34 34 35 35 35 35 35 35 35 35 35 35 33 31 31 31 32 32 31 31 32
11 11 9 10 7 1 4 2 5 5 4 5 3 4 8 8 6 5 6 6 7 7 7 6 7 9 12 15 18 17 16 15 14 13 12 11 11 11 11 12 12 10 8 7 8 7 8 9 9 9 9 10 11 14 17 18 19 17 17 20 24 25 27 28 27 27 29 31 33 33 33 32 32 32 32 30 30 31 29 28 28 29 30 30 29 29 30
9 10 11 11 7 4 10 5 3 3 1 1 4 9 11 9 8 9 8 8 8 9 9 8 9 12 14 15 15 16 16 15 14 13 12 11 10 10 9 10 9 8 8 8 8 7 7 6 4 3 6 10 11 11 13 13 13 14 15 17 20 23 25 26 26 25 26 27 30 30 30 30 30 30 29 28 27 28 28 27 27 28 28 29 29 28 29
7 10 9 5 1 6 10 6 2 5 7 7 9 11 10 9 11 12 10 10 11 12 11 11 11 12 14 14 13 14 14 13 13 13 11 10 9 8 8 8 9 8 8 7 6 6 7 8 8 5 3 7 9 8 10 13 13 13 14 15 17 19 21 23 23 23 22 23 25 26 26 27 27 27 27 27 26 27 28 27 26 27 28 29 28 28 29
5 7 5 4 6 6 6 5 6 8 9 9 10 11 11 11 12 14 14 14 15 15 14 12 12 12 13 14 13 13 13 13 12 12 12 10 9 9 8 8 8 7 5 6 5 5 6 6 7 8 7 5 6 9 13 15 14 13 12 13 14 15 16 18 19 20 19 19 20 20 20 21 23 23 24 24 25 25 25 24 24 25 26 28 28 27 28
7 10 11 10 7 4 5 7 9 11 12 12 12 12 12 13 14 16 16 17 19 19 17 16 14 13 13 15 14 12 12 12 11 11 11 11 9 8 7 7 6 5 4 4 4 3 4 5 2 7 8 6 5 8 10 9 11 14 13 11 12 13 13 13 15 17 17 17 17 18 17 18 19 20 20 21 22 22 22 22 23 23 23 25 27 28 28
6 8 9 9 7 5 7 10 12 11 11 12 13 13 13 14 16 16 17 19 20 20 19 18 17 15 13 13 13 12 11 11 10 10 10 9 8 7 7 6 5 3 3 3 3 2 2 4 3 1 3 3 2 3 4 4 8 14 14 11 11 11 11 11 12 14 15 15 15 16 16 16 17 17 17 18 19 20 21 21 22 23 23 24 25 26 28
9 10 12 13 13 14 13 13 14 13 11 10 12 13 13 15 16 16 16 17 19 20 19 18 18 17 14 11 11 11 10 9 9 9 9 8 7 6 5 4 3 2 1 1 1 1 2 2 4 4 3 3 2 1 2 2 4 8 10 9 9 9 9 9 9 10 12 13 14 14 14 15 15 15 16 17 17 19 19 20 20 21 22 23 23 24 26
10 12 15 16 17 17 16 17 17 14 11 11 12 13 14 16 16 17 17 17 17 19 20 19 18 17 15 13 11 9 8 7 7 7 8 7 6 4 3 2 2 1 2 2 2 2 3 4 5 5 5 4 4 3 2 2 3 3 5 7 7 7 7 7 7 8 9 10 12 12 12 13 14 15 16 16 16 16 16 17 19 20 21 22 23 24 24
9 10 12 13 12 11 11 14 15 12 9 11 13 14 15 16 16 18 20 20 19 20 20 20 18 16 14 12 10 8 6 5 5 4 4 4 4 3 1 1 1 1 2 3 3 3 4 6 7 7 6 6 6 5 5 5 5 4 5 6 7 7 7 7 7 7 7 7 9 9 9 11 12 13 15 16 17 18 16 15 17 20 22 23 24 25 26
11 12 14 14 12 11 13 17 18 15 12 14 16 16 17 17 17 18 19 20 22 23 22 21 18 16 14 10 8 6 5 4 4 3 1 1 2 2 3 2 2 3 4 4 4 4 6 7 7 7 7 8 7 6 6 6 6 6 7 7 6 6 8 10 10 9 8 8 8 9 8 9 10 11 11 11 12 16 19 19 20 22 23 26 27 28 29
15 17 19 17 15 15 18 21 22 19 16 17 18 19 19 18 17 17 18 18 20 22 23 23 20 17 14 11 8 6 5 4 4 4 3 3 4 4 5 5 6 7 7 6 5 6 7 8 8 8 8 8 8 7 7 7 7 7 7 6 6 5 6 10 12 11 10 10 10 9 8 7 8 9 8 6 6 9 14 17 19 21 23 25 27 29 32
19 20 21 19 19 20 21 22 23 22 19 19 21 22 21 20 19 19 19 19 19 21 22 24 23 19 17 14 11 9 6 4 4 4 5 6 6 6 6 5 6 7 8 8 7 8 9 9 9 9 9 9 8 8 8 7 7 7 9 9 9 8 7 7 8 7 6 6 6 6 6 6 5 5 5 4 3 4 6 7 8 9 11 14 17 20 24
20 21 21 21 22 23 23 23 23 23 21 20 22 23 21 20 19 19 18 19 21 22 23 24 24 19 15 14 12 9 7 5 5 5 6 6 6 6 6 6 6 7 7 8 9 10 9 9 9 10 10 10 9 8 8 8 8 8 9 10 10 9 9 9 9 8 8 7 7 6 6 6 5 5 4 4 4 3 1 2 3 3 4 6 9 11 14
21 22 21 20 21 24 26 26 25 24 22 21 22 22 19 18 18 19 19 19 21 23 23 23 22 17 13 12 10 9 7 6 6 7 7 8 8 7 7 8 8 9 9 9 9 10 10 9 8 9 8 8 8 8 8 8 9 10 10 9 8 7 8 9 9 8 7 7 7 6 6 6 5 4 3 3 2 1 1 3 4 4 6 8 10 11 11
26 26 25 23 23 26 27 27 27 27 25 24 24 22 20 19 18 19 18 18 20 22 21 20 20 17 13 11 11 10 9 9 10 9 8 9 10 10 10 10 11 11 11 11 10 10 11 11 11 10 9 7 7 7 8 8 8 10 10 9 8 6 7 8 7 6 6 6 5 4 5 6 5 4 4 3 2 2 2 4 5 7 9 11 12 13 13
30 29 29 28 29 29 29 28 29 28 27 26 25 23 21 20 19 19 18 18 19 20 18 18 18 16 12 10 11 11 11 11 12 10 8 9 10 11 11 11 10 11 11 11 10 10 10 12 13 13 11 9 8 7 7 8 8 7 7 6 6 6 7 7 5 4 5 5 5 5 5 5 5 4 3 2 2 3 4 5 7 9 11 13 14 13 14
32 29 28 28 27 28 29 30 31 30 29 28 27 25 24 22 21 21 20 19 19 19 17 15 15 12 11 10 11 12 12 12 12 11 9 8 9 11 12 12 11 11 11 10 10 10 10 12 13 14 12 10 9 8 8 7 7 7 6 5 5 5 6 6 5 4 4 4 4 5 5 4 4 4 3 3 4 5 6 7 8 10 12 14 15 14 14
34 32 32 32 30 29 30 32 33 33 32 30 28 26 25 23 22 23 22 20 18 19 17 13 11 9 7 7 9 12 14 13 13 12 10 9 9 11 12 12 12 12 11 10 11 11 11 12 13 14 12 10 9 9 8 8 8 8 6 6 7 5 5 7 7 6 6 6 6 6 6 6 6 6 6 6 6 7 8 8 9 11 12 12 13 14 16
35 35 36 36 35 34 33 33 33 34 33 31 29 27 25 23 22 24 24 21 19 18 16 11 9 8 5 4 9 13 14 13 13 13 12 11 11 12 12 12 12 12 11 11 11 11 11 12 12 11 11 11 11 10 8 8 9 8 6 6 6 6 7 9 9 7 7 7 6 6 6 6 7 7 7 7 7 7 8 8 9 11 13 13 12 13 15
30 31 31 31 31 33 34 34 32 33 33 31 28 26 24 22 23 24 23 21 20 19 15 10 9 10 7 5 7 11 12 12 13 14 13 13 12 12 12 12 12 12 12 11 11 10 11 13 14 11 9 11 12 10 8 8 8 7 6 6 6 6 6 9 9 7 6 5 5 6 6 6 6 6 6 6 6 6 7 8 8 9 11 11 10 11 14
31 30 30 31 30 29 31 33 32 30 29 29 28 26 24 23 24 24 23 22 22 20 15 12 12 12 11 9 9 10 12 13 14 15 15 14 13 13 13 12 13 14 14 13 12 12 12 15 16 13 10 9 9 9 10 10 8 7 8 8 7 7 8 7 7 7 6 5 5 6 5 5 5 6 6 6 6 7 7 7 6 6 8 10 9 9 12
26 30 32 32 29 25 25 28 30 28 27 27 26 25 24 23 23 23 24 24 21 17 14 14 13 12 13 13 12 12 13 13 14 16 16 15 15 15 15 15 16 16 17 17 16 14 12 14 16 14 11 10 10 10 12 12 9 8 9 9 8 8 9 9 9 9 8 7 7 8 7 6 7 7 6 6 7 8 8 8 7 6 6 8 8 8 10
12 18 21 19 17 15 17 21 25 25 24 23 23 24 24 23 22 24 25 22 18 15 15 15 15 14 15 15 14 13 14 14 14 15 16 17 16 17 18 18 18 17 18 19 18 15 13 15 17 15 12 12 13 13 14 14 12 10 10 10 10 10 11 11 11 11 9 9 10 10 10 9 9 9 8 8 8 8 8 9 9 8 7 7 7 8 8
11 3 3 5 6 7 10 13 17 19 20 20 21 22 22 20 20 21 21 18 17 18 18 17 18 19 18 19 19 18 17 16 15 16 18 18 18 19 21 21 20 19 19 19 18 15 13 15 17 16 14 14 15 15 15 15 14 11 11 12 13 12 12 11 11 10 10 11 13 13 13 12 11 11 10 9 9 9 9 8 9 10 9 8 8 8 7
33 26 17 11 9 9 8 9 10 12 15 16 17 17 18 19 18 18 18 19 21 23 23 22 23 22 21 21 21 21 20 18 18 20 21 21 23 25 25 23 22 21 19 16 15 15 15 17 19 19 18 17 16 16 17 17 16 13 12 12 13 13 12 11 11 12 11 11 13 14 15 14 13 12 11 9 7 8 9 8 8 9 10 9 9 8 8
46 43 38 31 26 21 18 15 13 13 13 13 13 14 16 17 19 21 24 26 26 27 28 28 28 27 26 24 24 24 23 22 22 23 25 28 31 31 29 25 24 23 21 18 18 18 19 20 22 23 22 20 19 19 19 19 18 17 16 15 14 14 14 14 14 15 14 14 15 17 16 16 15 14 12 9 7 8 10 10 8 7 9 9 8 8 8
49 48 48 45 41 36 32 28 26 24 23 23 23 22 21 24 29 31 30 30 31 32 32 32 33 32 30 28 27 26 24 23 24 26 29 32 34 33 31 28 26 24 22 21 22 21 20 21 23 24 24 22 21 20 19 19 19 18 17 16 15 15 15 16 16 16 17 18 19 19 18 17 17 17 15 13 11 11 13 13 10 8 8 8 7 7 7
52 51 51 49 47 44 43 43 42 38 35 35 36 37 37 38 39 36 33 33 36 36 35 35 36 35 33 32 31 29 26 25 25 28 31 32 33 34 33 30 26 23 21 20 20 20 20 21 23 24 23 23 21 20 20 20 20 20 20 19 19 19 18 18 18 18 18 18 18 17 17 16 17 18 18 18 17 16 15 15 13 11 10 9 8 8 7
49 51 51 49 47 46 47 49 49 46 44 44 46 47 46 46 45 42 40 40 41 39 36 35 36 37 36 35 34 33 31 29 29 30 32 31 30 30 30 28 25 22 21 20 19 19 20 20 22 22 22 21 21 21 21 21 21 21 21 21 22 22 22 21 21 20 20 19 19 18 17 17 18 19 20 21 21 20 19 18 16 15 13 12 12 11 10
43 44 44 45 45 46 48 49 49 48 47 48 48 49 49 48 46 45 44 44 43 41 38 36 36 37 36 35 34 32 31 29 29 30 31 30 29 28 27 25 23 22 21 20 19 20 20 20 21 22 21 19 19 20 21 21 21 21 21 22 22 22 23 23 22 21 22 22 21 20 20 20 20 20 20 21 22 22 22 21 20 19 17 16 16 16 15
39 39 39 40 41 42 44 45 45 47 47 46 46 46 47 44 42 41 42 42 42 41 40 38 37 37 36 35 34 33 29 27 26 26 27 28 29 28 25 24 23 22 22 21 20 20 20 20 20 20 20 19 18 18 19 20 20 21 21 21 21 21 22 22 22 22 22 21 21 21 22 22 22 22 22 22 22 22 23 23 22 21 20 19 19 18 17
34 35 36 37 38 39 40 40 41 41 41 41 41 42 42 40 36 35 35 36 36 37 37 36 35 35 35 34 34 33 31 29 27 26 26 27 27 25 24 23 24 23 22 22 22 20 19 18 17 17 19 21 20 19 19 20 20 20 21 21 21 21 21 21 21 21 20 20 19 19 20 20 21 22 23 24 23 24 24 25 25 23 22 21 20 20 19
31 32 33 34 35 35 36 36 36 36 36 37 38 38 37 36 34 33 32 32 32 32 31 31 30 29 28 28 28 29 29 28 27 26 25 24 23 21 20 21 22 21 21 22 22 20 18 17 16 17 19 21 20 20 20 20 19 19 20 20 20 20 20 19 19 20 20 20 19 19 19 19 19 19 20 21 23 23 24 25 26 26 24 23 21 20 19
29 30 32 32 32 33 33 33 33 32 32 33 33 32 31 31 31 31 31 31 30 28 27 26 25 24 23 22 23 24 24 24 23 23 21 20 20 20 19 19 20 19 19 20 20 19 17 17 17 18 20 20 20 20 19 19 19 19 19 19 19 20 20 19 19 19 19 19 19 19 19 19 19 18 18 19 20 21 22 23 24 25 25 25 23 22 20
26 28 29 28 28 28 28 29 29 30 29 28 28 28 27 27 27 28 28 27 27 26 25 25 24 23 22 22 23 22 22 21 21 20 18 17 18 18 18 17 17 17 16 17 18 18 17 17 18 19 19 19 19 19 18 18 18 18 18 18 19 19 20 20 19 19 19 19 19 19 19 19 19 18 18 19 19 19 20 21 22 23 24 24 25 25 24
23 25 26 26 25 24 24 25 26 26 25 24 24 24 24 24 24 24 24 24 24 24 24 23 23 24 23 22 22 22 21 21 20 18 17 16 16 16 16 16 16 16 15 15 16 16 16 17 19 19 19 18 18 18 17 17 18 18 18 18 19 19 19 19 19 18 18 18 18 18 18 18 18 18 18 19 19 20 20 20 21 22 21 22 23 25 25
22 22 23 24 24 24 23 22 22 21 21 20 20 20 20 21 21 21 20 20 20 21 21 21 21 21 21 20 20 20 19 18 17 16 16 16 16 15 15 15 16 16 15 14 13 14 15 16 17 17 17 17 17 17 16 16 16 17 17 17 17 17 18 18 17 18 18 17 17 17 17 16 16 16 17 18 20 20 20 20 21 21 21 20 21 22 23
20 20 19 19 20 21 21 21 21 20 19 19 18 17 17 19 19 19 17 17 17 17 17 17 18 17 17 17 17 16 16 16 15 14 14 14 14 13 13 13 13 13 13 13 12 13 14 15 16 16 15 15 15 16 15 15 15 15 15 15 16 16 16 16 16 16 15 15 14 14 14 14 14 14 14 15 16 17 17 18 18 19 20 21 21 20 21
17 18 17 16 16 17 18 19 20 20 20 19 18 17 17 17 17 17 18 17 16 15 14 15 15 15 15 15 15 15 15 15 14 14 14 13 13 13 13 12 12 12 12 12 12 12 13 13 14 15 15 14 14 14 14 14 14 14 15 14 14 14 15 15 15 15 14 13 13 13 13 13 14 14 14 14 14 14 15 15 15 15 15 17 18 18 19
Wind_Direction
241 254 304 312 276 241 234 220 208 202 202 205 208 213 207 198 210 202 185 203 214 153 151 168 157 137 135 144 133 99 98 118 117 106 105 169 170 157 153 168 183 189 194 193 192 194 195 197 200 201 204 206 207 208 207 205 205 206 206 205 204 203 205 213 222 225 224 226 229 229 229 230 232 233 232 230 226 223 225 230 235 236 233 230 235 240 242
234 233 251 283 287 277 263 236 216 206 204 205 206 210 209 203 214 214 180 192 206 185 158 158 142 135 160 164 93 48 65 67 26 26 333 271 246 154 144 161 176 182 192 195 194 197 199 198 200 202 204 206 207 207 208 207 207 206 205 205 205 204 205 213 222 224 222 224 228 229 228 228 231 234 232 230 229 226 224 225 229 234 232 225 225 233 239
234 225 227 254 273 267 261 263 247 221 207 203 204 207 207 204 207 203 172 175 199 202 185 150 101 80 2 353 352 325 330 333 324 302 271 281 305 328 138 165 178 180 185 190 193 200 205 205 203 204 206 207 207 207 207 208 207 205 205 206 206 207 208 212 217 221 224 226 228 231 232 231 231 233 233 231 230 228 226 224 224 229 231 227 223 223 230
235 221 216 228 241 257 265 258 247 227 210 202 203 205 206 205 203 197 182 178 190 190 203 252 301 273 270 282 283 285 292 292 292 293 290 291 293 290 285 255 216 191 191 204 216 218 220 218 214 213 211 208 207 208 208 207 206 205 206 206 207 208 208 210 214 220 226 229 230 233 236 235 234 234 233 233 232 231 231 229 228 229 232 234 232 225 224
232 219 213 218 229 245 250 233 217 215 217 212 208 206 211 213 210 204 198 199 198 188 212 240 246 249 254 262 275 279 280 290 301 300 292 290 288 286 286 284 270 236 215 219 220 220 224 224 225 226 220 213 211 210 208 206 205 206 207 207 208 209 209 210 214 219 225 230 231 233 236 236 236 235 235 235 235 234 234 233 231 233 235 237 237 234 229
222 205 198 215 224 225 224 215 213 217 219 220 218 215 216 217 219 225 221 215 213 212 225 233 234 243 251 262 285 294 294 298 300 297 296 295 293 298 304 290 277 272 267 252 245 254 258 250 245 238 226 219 216 211 208 207 207 207 207 207 208 210 212 212 214 218 224 229 231 233 235 235 235 236 237 238 238 237 236 234 233 234 236 236 238 238 236
218 169 161 209 224 230 226 216 226 232 226 225 229 231 229 222 221 227 230 230 226 226 239 237 222 233 255 273 286 293 298 301 300 298 296 295 294 291 292 301 309 306 298 288 280 279 275 267 262 251 235 225 218 211 209 208 208 208 208 208 209 212 215 215 214 217 224 228 230 231 233 234 235 236 237 239 239 237 233 232 233 235 235 236 237 238 238
244 184 179 205 225 256 230 206 218 251 234 221 222 228 231 229 226 226 227 228 226 222 224 225 231 266 271 274 280 285 290 292 289 287 284 282 283 287 294 315 327 307 293 295 293 284 278 273 267 258 247 233 220 215 211 209 208 209 209 209 209 212 217 218 217 219 223 227 229 230 231 233 234 236 237 237 237 235 231 227 227 231 232 233 234 235 237
249 225 203 196 176 176 198 190 196 232 230 220 224 230 226 224 230 234 228 229 229 214 221 239 263 282 279 279 280 280 282 281 280 285 288 278 276 300 325 322 313 306 304 304 300 291 288 286 274 259 251 240 228 219 213 211 209 208 209 212 212 212 216 219 219 218 221 226 229 230 231 233 235 235 235 235 235 234 233 226 221 224 228 228 227 227 231
230 230 218 209 208 209 199 185 187 209 221 215 221 242 230 215 217 218 216 234 251 259 261 264 273 289 281 275 277 286 300 313 324 337 340 333 338 358 346 326 324 321 306 296 294 295 294 289 276 261 250 240 230 222 214 211 210 207 209 212 214 214 214 217 218 218 221 226 229 231 233 235 235 234 233 234 234 235 235 230 223 222 224 226 227 227 228
219 220 223 220 220 222 207 185 179 186 196 177 175 217 221 198 175 188 219 241 248 254 265 267 256 256 255 253 273 10 11 1 357 356 357 359 358 349 334 330 326 306 293 296 300 303 303 296 280 264 250 235 224 220 215 211 209 210 211 211 213 213 213 214 219 221 224 228 231 234 235 235 234 234 233 234 235 237 237 235 231 227 223 224 227 230 231
219 220 225 222 220 238 359 164 159 156 159 161 183 195 178 109 68 76 241 255 252 269 291 278 242 241 247 259 327 360 349 341 349 354 350 345 338 332 331 322 301 294 301 309 312 315 306 282 260 254 251 235 222 218 214 211 211 213 213 211 210 212 211 212 218 224 226 229 230 232 234 235 234 235 236 236 236 237 237 234 232 229 226 225 227 229 231
222 223 225 222 213 162 90 114 119 125 148 170 188 189 87 26 9 20 4 331 351 2 341 319 282 275 290 304 319 330 326 324 333 337 335 334 327 323 323 311 302 306 316 315 311 311 290 268 258 255 246 230 222 218 213 213 214 215 214 212 209 210 210 210 215 222 226 227 229 231 236 239 239 237 237 235 234 234 231 227 226 226 225 225 227 229 230
220 218 222 225 218 107 40 85 123 130 170 173 175 324 337 330 321 353 357 344 355 357 348 344 328 314 312 311 314 319 319 319 321 320 321 323 318 315 316 315 316 322 322 314 313 315 305 294 291 279 252 229 218 216 214 215 217 216 215 213 210 209 210 210 211 216 221 225 231 235 238 239 237 234 232 229 227 227 224 221 222 224 223 224 227 228 230
223 219 220 222 214 37 20 15 120 101 54 48 359 340 335 336 341 348 342 339 353 352 344 344 332 316 313 313 314 316 316 316 317 315 316 319 315 312 312 314 319 321 315 313 312 309 304 290 271 268 252 229 212 208 212 213 214 215 214 213 211 210 210 210 210 212 216 221 228 233 234 233 232 232 231 226 221 221 221 220 220 223 224 225 227 229 231
217 215 210 213 255 13 7 355 37 39 21 10 354 340 337 345 351 352 345 337 343 345 338 336 330 317 314 315 315 313 312 314 315 315 316 318 316 314 310 310 318 320 318 321 323 324 315 275 233 196 197 218 204 193 201 203 201 206 212 212 210 209 209 209 209 210 211 215 220 224 228 229 230 231 232 228 223 223 224 222 221 224 228 228 230 233 235
269 254 259 325 345 349 348 344 6 12 355 343 342 340 337 341 347 352 347 335 335 338 334 328 325 320 317 318 317 313 309 310 310 309 311 312 311 311 307 306 316 319 318 327 331 336 339 303 238 189 155 153 172 187 201 201 191 187 194 200 200 200 203 205 206 206 207 209 211 214 217 220 223 224 225 223 220 220 223 224 225 227 230 232 234 237 238
295 285 273 277 290 304 312 315 332 342 330 322 330 336 337 339 342 343 342 335 332 332 331 327 324 323 322 320 317 312 309 308 306 304 305 305 306 307 304 302 311 312 300 309 325 334 354 354 270 195 174 151 165 196 207 207 195 188 184 186 191 193 196 200 202 202 202 205 209 211 211 213 216 218 218 218 219 220 222 225 228 230 232 235 238 240 242
276 276 264 258 263 288 313 313 311 309 305 310 323 329 333 337 338 336 337 335 331 327 326 323 320 319 321 322 318 314 311 308 304 303 302 298 299 302 300 297 299 293 272 280 313 347 20 34 39 144 175 148 152 202 206 211 209 203 198 195 194 194 194 195 198 199 199 202 206 210 211 212 213 215 215 216 218 220 221 224 228 232 235 237 239 241 243
249 257 265 276 284 290 295 294 286 285 294 311 320 323 327 330 329 329 330 331 330 326 320 316 314 312 312 312 309 307 307 302 294 294 296 295 294 294 297 304 300 272 243 265 312 54 72 74 73 81 99 106 102 153 187 192 201 203 200 192 186 186 186 186 190 195 198 201 203 207 213 215 214 215 215 216 219 222 222 224 226 230 235 238 241 243 245
251 250 257 270 282 285 280 272 269 277 302 322 318 315 317 318 319 323 324 324 325 323 318 313 308 305 305 304 298 295 300 298 287 288 293 288 278 277 287 316 307 237 188 162 156 134 97 88 91 86 81 85 90 83 77 90 111 151 172 168 164 167 170 172 181 187 191 199 204 206 212 217 218 218 219 219 222 226 230 231 231 232 236 240 243 246 248
248 244 245 254 265 272 274 275 277 288 313 321 314 312 313 312 313 317 320 319 316 314 315 314 305 295 294 296 289 281 283 280 275 287 295 273 250 240 245 290 305 189 154 140 144 134 97 85 83 78 72 71 74 76 85 96 102 109 122 130 135 146 156 163 172 174 177 193 205 206 210 217 223 227 227 223 220 222 226 230 233 234 237 240 243 246 248
252 253 251 250 257 275 287 290 292 297 305 306 301 300 301 304 306 309 313 316 312 308 308 310 302 288 279 277 273 270 264 249 248 262 268 195 162 148 144 138 129 131 129 124 117 108 102 99 93 86 81 76 70 71 84 99 107 110 116 125 135 149 167 173 168 159 157 173 187 192 199 209 216 226 236 239 236 233 230 229 231 234 236 238 242 245 247
265 265 261 258 260 267 273 279 281 284 290 294 293 291 291 293 297 299 300 304 305 302 302 303 297 281 263 250 243 242 230 209 218 224 197 155 132 127 125 119 115 114 111 108 105 100 102 108 103 93 88 85 80 75 76 90 105 109 109 115 121 128 158 176 175 168 167 175 180 180 186 199 206 213 224 244 263 257 246 239 239 242 245 246 248 249 250
257 261 262 265 267 267 268 273 274 275 278 282 282 283 284 285 288 291 292 292 293 292 291 294 292 277 255 244 239 231 219 198 186 191 195 192 173 150 136 125 114 107 104 105 104 98 97 101 100 92 86 83 80 79 80 89 107 119 123 126 121 110 114 140 154 150 143 148 157 162 169 180 185 188 197 208 228 256 265 260 255 257 258 257 257 258 257
256 259 261 262 260 260 261 263 263 263 266 270 271 273 276 278 281 284 284 284 286 283 279 285 288 276 252 241 235 217 197 180 172 172 179 181 168 151 145 140 129 119 111 105 102 98 95 97 102 101 93 84 81 82 82 81 85 98 115 129 133 126 123 127 130 130 130 133 141 156 169 170 161 160 178 190 192 201 257 317 321 314 303 292 288 287 284
261 258 258 258 256 253 252 253 257 260 263 265 266 268 271 274 277 279 279 279 280 278 274 278 280 268 242 227 217 194 168 154 154 152 149 148 143 138 135 132 125 120 113 102 97 96 89 83 89 95 92 87 88 87 83 83 87 88 89 93 103 117 129 134 136 141 150 156 158 167 175 169 155 148 151 150 149 135 39 9 350 338 335 329 325 322 317
267 260 256 255 255 255 254 254 257 260 262 263 263 264 268 271 271 272 274 274 272 271 272 271 266 255 236 214 198 182 163 147 138 131 126 129 131 128 120 112 109 109 105 98 93 92 88 82 78 75 72 74 79 81 76 77 89 96 91 82 79 93 115 125 134 149 160 162 163 169 169 159 145 129 115 108 100 63 25 359 344 343 344 340 336 330 326
265 261 257 255 256 259 259 257 255 256 257 258 257 258 262 264 263 265 269 269 265 264 266 266 260 247 227 207 192 175 154 141 137 134 125 118 121 123 118 110 104 101 96 93 89 86 88 87 78 70 65 60 56 66 74 72 76 89 97 97 109 133 137 125 119 138 148 144 140 136 131 128 124 111 95 92 77 46 25 1 350 355 352 344 337 332 327
260 258 257 257 257 258 257 253 251 251 252 251 251 253 255 255 256 260 261 261 258 254 253 259 256 235 210 202 194 169 145 131 132 135 128 112 109 114 113 107 102 95 87 84 83 80 81 83 77 71 68 60 50 56 66 67 68 72 70 67 83 125 140 118 91 90 105 107 106 99 83 70 71 63 48 45 40 30 21 5 352 353 353 347 341 335 332
258 257 256 257 259 259 257 253 250 250 249 247 247 250 248 245 247 252 253 251 250 247 245 248 243 224 205 188 162 143 134 127 125 126 123 112 104 106 105 100 96 92 86 82 80 77 76 76 73 69 65 56 50 53 59 67 75 73 61 49 45 52 84 86 67 56 66 68 59 57 52 43 38 31 21 17 17 16 13 4 351 347 348 347 343 342 341
255 255 255 255 255 253 252 250 248 245 243 242 242 242 239 237 239 242 242 240 238 238 239 234 213 195 187 154 129 122 120 122 122 120 118 112 107 105 104 100 95 91 88 86 83 78 72 67 65 68 72 67 60 53 48 57 72 77 75 68 51 44 75 90 75 49 46 51 44 38 36 29 22 16 7 2 2 0 358 356 352 350 349 346 344 347 350
250 251 250 248 247 243 241 240 239 237 235 234 233 232 231 230 232 235 235 231 229 228 226 214 188 169 160 154 137 122 115 115 117 116 113 110 107 104 100 98 95 89 85 85 82 78 76 68 60 62 78 82 76 68 53 48 56 66 70 69 59 49 72 97 98 80 63 56 40 31 31 26 12 2 356 354 352 350 349 349 348 349 349 346 344 349 352
243 246 247 246 245 241 233 228 225 226 227 226 224 223 223 223 226 229 227 222 221 218 206 187 173 161 151 148 139 129 128 126 119 114 110 106 104 100 93 90 89 83 77 74 68 68 83 86 74 62 62 69 77 84 77 60 51 55 60 60 60 56 54 63 74 70 63 57 42 29 30 30 12 356 352 352 347 344 344 340 335 337 338 333 333 343 347
249 249 252 253 250 243 231 222 218 218 220 220 217 217 218 219 219 219 216 212 210 205 187 170 161 153 150 147 136 125 128 125 115 110 109 104 99 97 93 90 88 83 76 71 64 62 77 87 78 67 61 57 59 77 85 73 58 55 60 56 52 53 51 45 44 44 46 48 43 33 30 32 18 3 4 7 356 346 341 334 328 332 330 321 323 339 347
277 256 253 251 244 234 228 222 217 213 212 212 211 211 213 212 208 206 207 204 192 177 166 156 144 136 140 144 136 123 121 117 107 104 105 100 94 95 95 92 90 85 77 70 63 58 64 74 73 68 67 64 63 74 86 81 67 61 64 60 55 55 56 49 42 39 39 42 41 35 34 35 26 14 13 13 1 351 346 339 335 336 331 323 329 342 345
44 35 247 229 206 199 204 206 204 201 202 207 209 207 204 200 196 197 199 191 170 158 153 144 134 130 130 129 126 121 117 111 102 98 97 94 93 94 91 85 81 78 72 67 61 56 60 73 76 71 65 64 67 75 82 78 70 67 68 66 62 61 58 52 47 46 46 46 45 41 38 37 33 26 22 19 10 4 360 353 349 348 342 334 334 338 338
60 64 66 75 91 103 120 146 167 178 186 193 192 182 176 179 184 186 181 169 157 151 145 135 129 127 122 116 113 110 106 103 102 100 97 95 95 93 84 73 68 68 66 65 69 69 71 79 82 77 68 62 63 69 74 71 66 64 66 66 65 62 58 55 54 53 49 48 48 46 43 41 38 32 26 20 15 9 1 351 349 354 353 348 346 350 350
52 57 61 64 70 78 87 98 116 132 140 140 134 132 143 157 159 151 147 147 146 141 135 129 123 117 111 107 104 101 99 99 100 97 93 92 93 91 82 72 69 71 72 77 83 84 84 86 85 80 74 68 62 62 67 68 64 62 63 65 66 66 64 61 60 57 52 49 49 47 44 42 41 38 32 27 26 23 14 3 356 360 2 357 355 359 0
43 50 56 59 62 68 75 80 91 102 109 111 115 118 125 131 130 124 123 128 132 130 126 124 120 115 109 106 103 100 97 94 91 90 91 92 92 89 83 76 74 77 82 84 85 85 87 88 84 79 75 72 66 62 65 68 67 65 64 64 64 63 62 61 60 58 54 51 50 48 46 45 46 45 43 41 44 44 35 27 23 22 16 6 357 355 353
42 46 50 52 54 60 67 71 76 82 86 92 101 107 109 112 113 107 100 103 110 112 111 110 110 108 104 102 101 100 97 92 88 88 90 89 86 82 77 72 70 75 81 83 83 83 84 84 82 78 75 72 70 68 69 70 68 66 66 66 67 65 63 60 58 57 54 53 53 52 49 49 51 51 50 49 52 52 48 43 41 38 34 27 20 14 9
45 47 50 49 49 53 59 64 68 70 71 75 85 93 95 96 95 91 86 87 92 93 94 96 98 98 96 94 94 93 90 87 85 85 83 80 77 74 72 68 66 70 75 77 78 80 80 80 80 78 76 75 75 72 69 67 65 63 62 64 67 69 67 63 59 56 56 56 58 57 53 50 49 50 51 53 55 53 50 48 46 44 42 41 38 38 42
47 50 52 52 51 53 56 58 61 63 64 66 73 80 84 86 86 84 83 84 84 83 83 86 89 91 91 89 86 84 81 78 77 77 76 74 71 70 70 68 66 67 70 72 73 75 76 76 77 75 74 76 80 77 69 62 60 59 58 58 60 63 63 61 58 57 56 55 55 56 58 57 53 50 48 51 54 54 53 53 53 52 51 50 48 47 50
48 50 53 56 58 60 61 61 60 61 62 65 69 74 78 81 81 80 80 80 80 79 77 76 77 80 82 82 80 78 77 75 74 72 71 70 67 65 65 68 70 69 69 68 69 72 74 76 77 77 74 72 74 76 73 68 65 62 58 56 56 57 57 56 56 56 55 53 52 52 54 56 56 53 51 49 51 52 53 53 53 53 54 55 54 55 55
49 50 53 58 62 63 63 64 65 66 69 72 74 76 79 81 82 81 80 79 79 79 78 75 73 73 74 74 75 75 75 74 73 70 67 67 64 60 59 63 68 70 70 67 64 65 71 75 79 81 76 67 63 64 66 67 66 64 59 56 56 56 55 55 55 54 53 54 53 52 50 51 51 51 51 50 50 51 53 53 52 51 50 49 49 49 50
48 52 54 57 59 61 64 68 72 75 76 76 75 76 79 83 85 85 85 84 83 83 83 81 79 78 76 73 72 71 70 69 68 66 65 67 68 65 60 57 55 56 61 62 60 59 64 70 75 79 74 66 60 59 59 58 59 60 60 58 57 57 56 55 55 55 54 54 53 53 52 51 49 47 47 47 46 47 48 49 50 50 50 51 50 48 45
42 48 51 54 56 60 65 70 72 73 73 72 71 72 78 83 86 87 88 89 89 88 87 85 84 84 85 84 82 78 73 69 66 63 62 65 68 69 68 64 55 46 44 47 49 50 55 62 67 69 67 61 57 57 58 57 56 57 57 56 57 57 57 55 54 53 53 54 53 53 52 52 51 49 48 47 46 44 43 44 45 45 45 46 48 49 47
36 40 45 50 54 57 59 60 60 62 65 70 73 74 76 81 83 84 86 89 90 90 89 86 83 82 85 88 88 84 79 74 70 65 61 61 63 63 65 68 65 56 46 42 42 43 50 58 61 59 58 57 55 53 55 56 56 56 55 55 55 55 55 54 53 52 51 52 52 52 51 50 50 49 49 48 47 45 42 40 40 40 39 39 41 42 43
35 36 39 43 47 49 49 49 49 52 58 65 71 72 73 75 75 75 76 81 84 85 84 83 82 80 80 80 79 79 77 74 69 65 62 61 59 56 53 52 54 54 51 47 43 41 47 56 59 55 52 54 55 54 52 53 53 53 54 54 54 53 52 51 51 52 51 50 49 49 50 48 47 49 50 50 49 48 46 43 40 38 37 35 35 36 37
35 37 39 40 42 43 45 47 48 50 52 56 58 61 63 65 65 63 64 67 70 71 71 71 70 70 70 69 68 70 72 71 68 65 62 58 54 52 48 45 44 46 48 49 46 42 44 51 54 53 50 51 53 54 53 52 51 50 50 49 50 50 50 49 47 47 48 48 46 46 46 45 44 45 44 38 33 34 39 41 40 39 39 37 35 33 33
36 37 39 42 44 44 46 48 50 50 51 53 54 55 58 61 61 61 60 61 62 62 63 62 60 58 58 59 59 59 61 62 61 59 55 52 50 48 46 44 45 47 48 48 48 46 45 46 49 52 52 52 51 52 52 51 50 49 48 46 44 43 44 45 44 43 43 44 43 42 42 41 40 39 37 30 25 26 31 31 27 27 29 31 31 31 32
39 39 40 42 45 46 47 48 48 48 49 50 52 54 56 58 59 59 57 58 58 58 57 58 57 55 53 53 53 52 50 49 48 46 45 45 44 44 43 43 45 47 48 49 49 49 48 48 48 50 51 51 49 49 50 49 47 46 46 45 42 39 38 40 42 41 40 39 39 38 38 37 37 36 36 36 36 36 34 29 23 21 20 19 20 24 28
Height
1381 1383 1385 1380 1375 1372 1371 1369 1368 1369 1373 1376 1380 1384 1383 1385 1398 1403 1395 1395 1401 1396 1392 1392 1388 1387 1389 1388 1386 1389 1393 1397 1398 1401 1403 1403 1402 1404 1408 1410 1411 1412 1414 1416 1418 1421 1422 1425 1427 1429 1431 1433 1435 1438 1440 1442 1444 1447 1449 1451 1453 1455 1457 1458 1459 1462 1465 1468 1471 1474 1478 1480 1482 1485 1487 1490 1493 1496 1497 1498 1500 1502 1505 1506 1507 1509 1511
1383 1384 1386 1383 1380 1379 1374 1369 1365 1365 1369 1372 1376 1379 1379 1382 1390 1390 1388 1396 1397 1390 1386 1386 1385 1386 1388 1388 1390 1393 1396 1399 1400 1402 1404 1403 1401 1401 1406 1410 1411 1411 1413 1415 1417 1419 1420 1422 1425 1426 1429 1430 1432 1435 1437 1439 1441 1443 1445 1447 1449 1451 1453 1453 1456 1459 1462 1465 1467 1470 1473 1475 1478 1480 1483 1486 1489 1491 1493 1495 1496 1498 1501 1504 1505 1505 1507
1388 1386 1387 1386 1385 1384 1380 1375 1370 1365 1365 1368 1373 1376 1376 1381 1387 1386 1389 1400 1398 1386 1381 1382 1386 1390 1392 1393 1395 1397 1399 1401 1402 1403 1404 1403 1403 1403 1405 1409 1410 1410 1413 1414 1416 1417 1418 1420 1422 1423 1425 1427 1429 1431 1433 1435 1437 1440 1442 1443 1445 1447 1448 1450 1453 1455 1457 1460 1463 1465 1468 1471 1473 1476 1479 1481 1484 1486 1489 1491 1493 1494 1497 1499 1501 1502 1503
1398 1388 1388 1389 1385 1385 1386 1384 1378 1370 1367 1369 1372 1372 1373 1378 1385 1389 1396 1405 1402 1389 1384 1387 1390 1392 1395 1396 1397 1398 1400 1401 1402 1403 1404 1404 1406 1406 1406 1408 1409 1410 1412 1413 1414 1416 1417 1418 1419 1421 1423 1424 1426 1427 1429 1431 1434 1437 1438 1439 1441 1443 1445 1448 1450 1451 1453 1455 1458 1460 1463 1466 1469 1471 1474 1477 1479 1481 1483 1486 1488 1490 1492 1493 1495 1498 1499
1402 1387 1386 1389 1390 1397 1397 1385 1378 1377 1376 1375 1374 1375 1376 1378 1384 1392 1400 1402 1396 1389 1390 1393 1394 1394 1395 1396 1396 1398 1399 1400 1401 1403 1403 1404 1405 1406 1407 1408 1409 1409 1410 1411 1413 1415 1416 1417 1418 1419 1420 1421 1422 1424 1427 1429 1431 1432 1434 1435 1437 1439 1441 1444 1445 1446 1448 1450 1453 1455 1458 1461 1464 1467 1469 1471 1473 1475 1477 1480 1483 1485 1486 1487 1489 1492 1493
1400 1387 1385 1391 1399 1405 1395 1377 1372 1378 1380 1380 1381 1382 1382 1381 1383 1388 1392 1391 1388 1389 1392 1394 1394 1394 1394 1395 1397 1398 1398 1400 1401 1401 1401 1403 1404 1405 1407 1407 1408 1408 1409 1411 1413 1414 1415 1416 1416 1417 1418 1418 1420 1422 1424 1426 1427 1428 1430 1432 1434 1435 1437 1439 1441 1442 1444 1446 1448 1451 1454 1457 1460 1462 1464 1465 1467 1470 1473 1475 1477 1479 1480 1482 1484 1486 1488
1395 1387 1395 1409 1410 1396 1381 1373 1373 1374 1376 1379 1384 1384 1381 1380 1383 1385 1388 1389 1389 1390 1390 1391 1392 1394 1395 1397 1398 1398 1399 1400 1400 1400 1400 1401 1402 1403 1404 1405 1406 1407 1408 1410 1411 1412 1412 1413 1414 1415 1416 1416 1418 1419 1420 1422 1423 1425 1427 1429 1431 1432 1433 1435 1437 1439 1440 1442 1445 1448 1450 1453 1455 1457 1458 1460 1463 1466 1469 1471 1472 1474 1476 1478 1479 1481 1482
1398 1393 1403 1415 1407 1386 1376 1376 1377 1377 1378 1380 1385 1388 1384 1380 1381 1383 1386 1388 1387 1388 1390 1391 1394 1396 1397 1398 1399 1399 1400 1400 1399 1400 1399 1399 1400 1400 1401 1403 1405 1405 1406 1407 1408 1409 1409 1410 1411 1412 1413 1414 1416 1416 1417 1418 1420 1422 1424 1426 1427 1429 1429 1430 1433 1434 1436 1439 1441 1444 1446 1448 1450 1452 1454 1456 1459 1462 1465 1468 1469 1470 1472 1474 1475 1477 1477
1404 1400 1400 1400 1398 1392 1387 1384 1383 1384 1383 1381 1384 1390 1386 1379 1378 1381 1385 1388 1388 1389 1392 1393 1396 1398 1399 1400 1399 1398 1398 1398 1398 1398 1397 1396 1397 1398 1400 1402 1403 1403 1404 1404 1405 1405 1406 1407 1408 1409 1410 1412 1413 1414 1415 1416 1417 1419 1420 1421 1422 1424 1425 1427 1430 1432 1434 1435 1437 1440 1442 1443 1445 1447 1450 1453 1456 1458 1461 1463 1465 1466 1467 1469 1471 1472 1473
1404 1404 1402 1400 1403 1402 1391 1385 1384 1383 1382 1379 1382 1390 1389 1380 1378 1382 1387 1392 1394 1394 1395 1396 1397 1400 1404 1405 1400 1397 1397 1397 1397 1398 1397 1396 1397 1398 1400 1401 1402 1402 1402 1402 1403 1403 1404 1405 1406 1406 1408 1409 1410 1411 1412 1413 1414 1415 1416 1416 1418 1420 1423 1425 1427 1429 1431 1432 1435 1437 1438 1439 1441 1444 1447 1449 1452 1454 1456 1458 1460 1462 1463 1465 1465 1466 1467
1407 1409 1411 1406 1403 1394 1382 1380 1381 1381 1381 1380 1385 1400 1399 1385 1381 1386 1389 1392 1395 1395 1396 1397 1399 1404 1409 1406 1399 1396 1398 1399 1398 1398 1398 1397 1398 1399 1400 1401 1401 1401 1400 1400 1400 1401 1402 1402 1403 1403 1404 1405 1407 1408 1409 1410 1411 1411 1411 1413 1415 1418 1420 1422 1424 1426 1428 1430 1432 1433 1435 1437 1440 1442 1444 1446 1448 1450 1452 1454 1456 1458 1460 1461 1461 1461 1462
1413 1414 1412 1403 1395 1388 1382 1380 1380 1382 1384 1384 1395 1411 1406 1390 1388 1393 1393 1393 1395 1396 1398 1400 1401 1404 1405 1401 1397 1398 1400 1400 1399 1399 1399 1399 1399 1400 1401 1401 1400 1399 1399 1399 1399 1400 1401 1400 1400 1401 1402 1402 1404 1405 1406 1407 1408 1408 1409 1411 1414 1416 1419 1420 1422 1423 1425 1427 1428 1430 1432 1435 1437 1439 1441 1443 1445 1446 1448 1450 1452 1453 1455 1456 1457 1458 1459
1416 1416 1414 1403 1391 1387 1386 1385 1385 1387 1388 1393 1405 1413 1406 1398 1399 1399 1397 1397 1398 1399 1401 1401 1400 1401 1401 1399 1398 1400 1400 1400 1400 1400 1400 1400 1400 1400 1401 1400 1398 1399 1400 1399 1398 1399 1399 1398 1398 1399 1399 1400 1401 1403 1404 1405 1406 1408 1409 1411 1413 1414 1416 1418 1420 1420 1422 1424 1425 1428 1430 1432 1435 1436 1438 1440 1441 1442 1444 1447 1448 1449 1451 1452 1454 1454 1455
1414 1413 1414 1409 1397 1390 1388 1390 1391 1392 1396 1405 1412 1411 1406 1404 1403 1401 1400 1400 1400 1400 1402 1402 1402 1402 1402 1401 1400 1400 1400 1400 1400 1400 1400 1400 1400 1400 1400 1399 1398 1399 1399 1398 1398 1398 1397 1397 1397 1397 1398 1398 1399 1400 1402 1403 1405 1408 1410 1410 1411 1412 1413 1415 1417 1418 1420 1421 1423 1425 1427 1429 1431 1433 1435 1437 1438 1440 1442 1444 1445 1446 1447 1448 1450 1451 1452
1416 1413 1414 1415 1408 1399 1395 1394 1396 1399 1405 1412 1414 1410 1408 1407 1404 1403 1403 1401 1400 1402 1403 1403 1405 1404 1403 1403 1402 1400 1400 1399 1399 1400 1400 1400 1400 1400 1400 1400 1399 1398 1398 1397 1397 1396 1396 1396 1396 1396 1397 1397 1398 1399 1400 1402 1404 1407 1408 1409 1410 1411 1412 1413 1415 1417 1418 1419 1420 1422 1424 1426 1428 1430 1432 1434 1436 1437 1439 1441 1442 1443 1444 1445 1446 1447 1447
1416 1414 1411 1411 1411 1406 1402 1400 1404 1408 1411 1412 1413 1411 1409 1409 1408 1407 1406 1403 1403 1404 1404 1405 1406 1405 1403 1403 1402 1401 1400 1399 1399 1399 1399 1399 1400 1399 1400 1400 1398 1397 1397 1397 1396 1396 1395 1394 1394 1395 1396 1396 1397 1398 1399 1399 1401 1404 1406 1408 1408 1409 1410 1411 1413 1415 1417 1417 1419 1420 1422 1424 1425 1427 1429 1431 1433 1434 1436 1438 1439 1440 1441 1442 1442 1443 1443
1415 1412 1408 1410 1412 1410 1408 1407 1408 1411 1412 1412 1413 1412 1410 1410 1409 1408 1407 1407 1406 1405 1405 1406 1406 1405 1403 1402 1402 1401 1401 1399 1399 1399 1398 1399 1399 1399 1400 1399 1398 1398 1398 1397 1396 1396 1394 1393 1393 1394 1395 1396 1397 1398 1397 1397 1399 1402 1404 1405 1406 1407 1409 1410 1411 1413 1415 1416 1417 1419 1420 1422 1423 1425 1427 1429 1430 1432 1433 1435 1436 1437 1438 1439 1439 1439 1440
1418 1413 1410 1412 1413 1412 1412 1412 1411 1413 1414 1413 1413 1413 1412 1411 1410 1409 1409 1408 1406 1405 1405 1405 1405 1405 1404 1402 1402 1401 1400 1399 1399 1399 1398 1398 1398 1398 1399 1398 1398 1398 1398 1397 1396 1396 1395 1394 1394 1394 1394 1395 1396 1396 1396 1398 1399 1400 1402 1403 1405 1406 1407 1409 1410 1412 1413 1415 1416 1418 1419 1420 1422 1424 1425 1427 1428 1430 1431 1432 1433 1434 1435 1437 1437 1437 1438
1423 1418 1411 1409 1411 1413 1415 1417 1416 1415 1416 1415 1414 1414 1413 1412 1411 1411 1410 1409 1407 1405 1404 1403 1403 1404 1404 1403 1402 1401 1400 1400 1399 1399 1399 1398 1398 1398 1398 1398 1397 1397 1397 1397 1397 1396 1395 1395 1395 1394 1395 1395 1395 1396 1397 1398 1399 1400 1401 1402 1403 1405 1406 1407 1409 1410 1412 1413 1415 1416 1418 1419 1421 1422 1423 1425 1426 1427 1428 1430 1431 1432 1433 1434 1434 1435 1435
1423 1419 1412 1410 1412 1414 1417 1419 1418 1416 1416 1416 1415 1415 1414 1414 1413 1412 1412 1411 1409 1407 1406 1405 1404 1403 1403 1404 1404 1402 1401 1400 1399 1399 1399 1398 1398 1398 1397 1397 1397 1397 1397 1397 1397 1396 1396 1395 1395 1395 1396 1396 1397 1397 1397 1398 1398 1399 1400 1401 1403 1404 1405 1406 1407 1409 1410 1412 1414 1415 1417 1418 1419 1421 1422 1423 1424 1425 1426 1427 1428 1429 1430 1431 1431 1432 1433
1421 1418 1414 1414 1414 1414 1414 1416 1415 1415 1415 1416 1416 1416 1415 1415 1414 1413 1412 1412 1411 1410 1408 1407 1405 1404 1403 1403 1403 1403 1402 1401 1400 1399 1399 1398 1398 1398 1397 1397 1397 1397 1397 1397 1397 1397 1396 1395 1396 1396 1396 1397 1397 1397 1397 1398 1398 1399 1400 1401 1402 1403 1404 1406 1407 1408 1409 1411 1412 1414 1416 1417 1418 1419 1420 1422 1423 1424 1425 1425 1426 1427 1427 1428 1429 1430 1430
1421 1417 1415 1415 1415 1412 1410 1412 1413 1414 1416 1416 1416 1416 1416 1415 1415 1414 1413 1411 1411 1410 1409 1407 1406 1405 1403 1402 1403 1403 1402 1401 1400 1399 1399 1398 1398 1398 1397 1397 1397 1397 1397 1397 1397 1397 1397 1396 1397 1397 1397 1397 1398 1398 1398 1398 1399 1399 1400 1401 1402 1403 1404 1405 1406 1407 1409 1410 1412 1413 1415 1416 1417 1418 1419 1419 1420 1422 1423 1423 1423 1424 1425 1425 1426 1426 1426
1416 1414 1413 1414 1414 1413 1412 1413 1414 1415 1416 1417 1416 1416 1416 1416 1416 1415 1414 1412 1410 1409 1408 1407 1406 1405 1404 1402 1402 1402 1401 1401 1401 1400 1399 1399 1398 1398 1398 1398 1397 1398 1398 1398 1397 1397 1397 1398 1398 1398 1398 1399 1399 1399 1399 1399 1399 1400 1401 1402 1403 1403 1403 1404 1405 1406 1407 1409 1410 1411 1413 1414 1415 1416 1417 1418 1418 1419 1420 1420 1420 1420 1421 1421 1422 1423 1423
1415 1414 1414 1414 1415 1415 1415 1415 1414 1414 1415 1416 1415 1415 1415 1415 1415 1415 1414 1413 1411 1410 1408 1406 1405 1405 1404 1402 1402 1401 1401 1400 1400 1399 1399 1399 1398 1399 1398 1398 1398 1398 1398 1398 1398 1398 1398 1398 1398 1398 1399 1399 1400 1400 1400 1400 1400 1401 1402 1403 1404 1404 1403 1403 1404 1405 1406 1406 1408 1410 1411 1412 1413 1414 1415 1416 1416 1416 1417 1417 1417 1418 1418 1419 1419 1420 1420
1416 1415 1416 1416 1416 1416 1415 1414 1413 1413 1414 1414 1414 1413 1414 1414 1414 1413 1413 1412 1411 1410 1408 1406 1405 1404 1403 1402 1401 1400 1400 1399 1399 1399 1399 1398 1398 1399 1399 1398 1398 1398 1398 1398 1398 1398 1398 1399 1398 1399 1399 1399 1400 1401 1401 1401 1401 1401 1401 1402 1403 1403 1403 1403 1404 1405 1406 1406 1408 1409 1409 1410 1411 1412 1413 1414 1414 1414 1414 1415 1415 1416 1416 1416 1416 1416 1416
1415 1415 1416 1416 1415 1415 1414 1413 1411 1411 1412 1413 1412 1412 1412 1412 1412 1411 1411 1410 1409 1408 1407 1405 1404 1403 1402 1402 1401 1400 1399 1398 1398 1399 1399 1399 1399 1399 1399 1399 1398 1398 1399 1399 1399 1399 1399 1399 1399 1399 1399 1400 1400 1401 1401 1401 1401 1401 1401 1401 1402 1402 1403 1403 1404 1405 1406 1406 1407 1408 1408 1409 1410 1410 1411 1412 1412 1412 1413 1413 1414 1414 1414 1413 1413 1413 1413
1412 1413 1413 1412 1410 1410 1410 1408 1407 1408 1409 1410 1410 1409 1410 1410 1409 1408 1408 1408 1407 1406 1405 1404 1403 1402 1401 1401 1400 1399 1398 1397 1397 1398 1399 1398 1399 1399 1399 1399 1399 1399 1399 1399 1399 1400 1400 1399 1399 1399 1399 1399 1400 1401 1402 1402 1401 1401 1402 1403 1403 1403 1404 1404 1405 1405 1406 1406 1407 1407 1408 1409 1409 1410 1410 1411 1411 1411 1412 1412 1412 1412 1412 1412 1411 1410 1410
1408 1408 1409 1407 1405 1404 1405 1405 1405 1405 1406 1407 1407 1407 1407 1407 1406 1406 1406 1405 1405 1404 1403 1402 1402 1401 1400 1399 1398 1398 1397 1396 1397 1398 1398 1398 1399 1399 1399 1399 1400 1400 1399 1400 1400 1400 1400 1400 1400 1400 1400 1400 1400 1400 1401 1401 1401 1401 1402 1404 1404 1405 1405 1405 1405 1406 1406 1407 1407 1407 1408 1408 1408 1409 1410 1410 1411 1411 1411 1411 1411 1410 1410 1410 1409 1408 1407
1402 1402 1402 1402 1401 1401 1402 1402 1402 1402 1402 1403 1403 1403 1404 1404 1404 1403 1403 1402 1403 1403 1402 1401 1400 1399 1398 1397 1396 1396 1396 1396 1396 1397 1398 1399 1399 1399 1399 1400 1400 1400 1400 1400 1400 1400 1401 1401 1401 1401 1402 1402 1401 1400 1400 1401 1401 1402 1402 1403 1404 1404 1404 1405 1406 1406 1406 1407 1407 1407 1407 1408 1408 1409 1409 1409 1410 1410 1410 1410 1409 1408 1408 1407 1406 1405 1404
1396 1396 1396 1396 1397 1398 1397 1397 1397 1398 1398 1399 1400 1400 1401 1401 1401 1400 1400 1400 1401 1401 1400 1400 1399 1398 1397 1397 1395 1395 1395 1395 1396 1397 1398 1399 1399 1399 1400 1400 1401 1401 1401 1401 1401 1402 1402 1402 1402 1403 1403 1404 1403 1402 1402 1402 1402 1403 1403 1403 1403 1404 1404 1405 1406 1406 1407 1407 1407 1407 1408 1408 1408 1408 1408 1408 1408 1408 1409 1408 1407 1407 1406 1406 1404 1403 1402
1389 1390 1390 1391 1392 1392 1391 1392 1393 1393 1393 1395 1396 1396 1397 1398 1397 1397 1397 1398 1399 1399 1399 1399 1399 1398 1398 1397 1395 1395 1395 1395 1396 1397 1398 1399 1400 1399 1400 1401 1401 1402 1402 1402 1403 1403 1403 1403 1403 1403 1404 1405 1405 1404 1403 1404 1404 1405 1405 1405 1404 1405 1405 1405 1406 1407 1407 1407 1407 1408 1408 1408 1409 1408 1408 1408 1407 1407 1408 1408 1407 1406 1405 1404 1403 1401 1400
1382 1382 1383 1384 1385 1385 1385 1385 1387 1387 1388 1390 1391 1391 1392 1394 1394 1394 1395 1396 1397 1397 1398 1398 1398 1398 1398 1397 1396 1395 1396 1396 1397 1398 1398 1400 1400 1401 1401 1402 1402 1402 1402 1403 1403 1404 1404 1404 1404 1404 1404 1405 1406 1406 1405 1405 1405 1406 1406 1406 1406 1406 1405 1406 1406 1407 1408 1407 1407 1408 1408 1408 1409 1409 1408 1407 1407 1407 1408 1408 1407 1406 1405 1403 1401 1400 1399
1374 1373 1374 1375 1376 1376 1376 1377 1379 1380 1382 1384 1386 1386 1388 1390 1390 1391 1392 1393 1395 1396 1397 1398 1398 1397 1398 1398 1397 1397 1397 1397 1398 1399 1400 1400 1401 1402 1402 1402 1402 1403 1403 1404 1404 1404 1405 1405 1405 1406 1405 1405 1405 1406 1406 1406 1406 1406 1406 1406 1406 1406 1406 1406 1406 1407 1408 1408 1407 1407 1408 1408 1409 1409 1408 1408 1408 1407 1407 1406 1406 1406 1405 1403 1401 1400 1399
1365 1364 1365 1366 1367 1367 1367 1369 1372 1375 1377 1379 1381 1382 1384 1385 1386 1388 1390 1391 1393 1395 1397 1397 1397 1397 1398 1398 1399 1399 1399 1400 1401 1401 1401 1401 1402 1402 1403 1403 1403 1404 1404 1404 1405 1405 1405 1405 1405 1407 1407 1406 1406 1406 1407 1407 1408 1408 1407 1407 1407 1407 1407 1407 1407 1406 1407 1407 1407 1407 1408 1408 1409 1409 1409 1408 1408 1407 1406 1406 1406 1406 1406 1404 1402 1400 1399
1357 1358 1359 1360 1361 1361 1362 1364 1367 1370 1372 1375 1376 1378 1380 1382 1383 1385 1387 1389 1392 1395 1396 1397 1397 1397 1397 1398 1399 1400 1401 1402 1402 1402 1402 1403 1403 1404 1404 1404 1405 1405 1406 1406 1406 1406 1407 1406 1406 1407 1407 1407 1407 1407 1407 1407 1408 1409 1409 1409 1409 1408 1408 1408 1407 1407 1407 1407 1407 1407 1407 1408 1408 1408 1408 1408 1408 1407 1407 1406 1405 1405 1405 1404 1402 1400 1399
1353 1354 1354 1355 1356 1357 1358 1360 1363 1366 1368 1371 1373 1375 1377 1379 1381 1383 1386 1389 1392 1394 1396 1396 1397 1397 1398 1399 1400 1402 1403 1404 1404 1404 1403 1404 1405 1406 1406 1406 1407 1407 1407 1407 1408 1408 1409 1408 1408 1408 1408 1408 1408 1407 1407 1407 1409 1409 1409 1409 1409 1409 1408 1408 1409 1409 1409 1408 1407 1407 1407 1407 1408 1408 1407 1408 1408 1408 1408 1407 1405 1404 1404 1403 1402 1401 1400
1354 1353 1354 1354 1354 1355 1356 1358 1361 1363 1366 1368 1371 1374 1376 1378 1380 1382 1385 1389 1392 1395 1396 1397 1397 1398 1399 1400 1401 1403 1404 1405 1405 1405 1405 1406 1407 1407 1406 1407 1408 1408 1408 1409 1410 1411 1410 1409 1409 1409 1409 1409 1409 1408 1408 1408 1409 1409 1409 1409 1409 1409 1410 1410 1411 1411 1410 1409 1408 1407 1406 1406 1407 1407 1407 1408 1408 1407 1407 1406 1405 1404 1403 1402 1402 1401 1400
1357 1356 1356 1356 1356 1356 1357 1358 1361 1363 1365 1368 1371 1373 1375 1377 1380 1382 1385 1388 1392 1394 1396 1398 1398 1398 1399 1401 1402 1404 1405 1406 1407 1407 1408 1408 1407 1406 1406 1407 1409 1409 1410 1411 1412 1412 1411 1410 1410 1410 1410 1410 1410 1410 1409 1409 1410 1410 1410 1410 1410 1411 1412 1412 1412 1412 1410 1409 1408 1407 1406 1406 1406 1406 1407 1407 1407 1406 1406 1405 1405 1405 1404 1403 1402 1401 1400
1364 1361 1360 1360 1359 1359 1360 1361 1362 1364 1366 1369 1371 1373 1374 1377 1380 1382 1384 1388 1391 1394 1396 1398 1398 1398 1399 1401 1403 1406 1408 1409 1409 1409 1409 1409 1408 1407 1408 1410 1411 1412 1412 1413 1413 1412 1412 1411 1411 1410 1410 1411 1411 1411 1411 1411 1411 1412 1413 1413 1413 1414 1414 1414 1413 1412 1410 1409 1408 1407 1407 1406 1406 1406 1406 1406 1406 1406 1406 1405 1405 1405 1404 1403 1402 1401 1400
1375 1372 1370 1368 1367 1365 1365 1366 1365 1366 1368 1370 1372 1374 1376 1378 1380 1383 1387 1390 1392 1395 1398 1398 1398 1399 1401 1403 1405 1408 1410 1411 1411 1411 1410 1410 1409 1409 1410 1412 1414 1414 1414 1414 1413 1413 1413 1412 1412 1411 1412 1412 1413 1413 1413 1413 1413 1414 1415 1415 1415 1415 1415 1414 1413 1412 1411 1410 1410 1410 1410 1409 1409 1408 1408 1407 1406 1406 1406 1405 1404 1404 1403 1402 1401 1401 1400
1386 1383 1380 1378 1376 1375 1374 1373 1371 1371 1373 1373 1373 1375 1378 1379 1381 1386 1391 1392 1393 1395 1399 1400 1399 1401 1403 1404 1406 1408 1411 1412 1413 1413 1412 1412 1412 1412 1413 1415 1417 1418 1417 1416 1416 1415 1415 1414 1413 1414 1414 1414 1415 1415 1415 1415 1415 1415 1416 1415 1415 1415 1414 1414 1413 1413 1412 1413 1413 1413 1413 1413 1412 1411 1410 1408 1407 1406 1405 1404 1403 1402 1402 1401 1401 1401 1401
1397 1393 1390 1388 1387 1385 1382 1379 1379 1380 1381 1380 1379 1380 1382 1383 1386 1391 1395 1394 1394 1397 1401 1403 1402 1403 1404 1406 1408 1410 1412 1414 1414 1414 1414 1415 1415 1416 1417 1418 1421 1421 1420 1419 1418 1417 1417 1416 1416 1416 1416 1417 1417 1417 1417 1417 1417 1417 1417 1416 1415 1415 1414 1414 1414 1414 1414 1414 1414 1415 1415 1415 1414 1412 1411 1410 1408 1407 1405 1404 1403 1402 1402 1402 1402 1402 1402
1407 1404 1402 1400 1398 1394 1390 1388 1388 1387 1387 1387 1387 1387 1388 1390 1392 1396 1397 1397 1399 1402 1406 1407 1406 1406 1407 1409 1411 1412 1415 1417 1417 1417 1417 1418 1419 1419 1420 1421 1423 1423 1422 1422 1421 1420 1419 1419 1419 1419 1419 1419 1419 1418 1419 1419 1419 1419 1418 1417 1417 1416 1416 1416 1416 1416 1416 1416 1416 1416 1416 1415 1415 1415 1413 1412 1410 1409 1408 1406 1406 1405 1405 1405 1405 1404 1403
1415 1413 1411 1409 1408 1405 1402 1400 1398 1396 1395 1395 1396 1395 1395 1397 1399 1401 1402 1403 1405 1408 1410 1412 1412 1412 1413 1414 1414 1414 1417 1419 1421 1421 1421 1421 1421 1422 1423 1424 1424 1425 1425 1424 1424 1423 1422 1422 1422 1422 1422 1422 1421 1420 1420 1420 1420 1420 1420 1420 1420 1419 1419 1418 1418 1418 1418 1419 1419 1419 1418 1418 1417 1416 1416 1414 1413 1412 1411 1410 1409 1408 1407 1407 1406 1406 1406
1423 1421 1419 1417 1415 1414 1412 1411 1409 1408 1407 1407 1407 1406 1406 1407 1409 1410 1411 1411 1413 1415 1417 1418 1419 1419 1420 1420 1420 1420 1421 1423 1424 1424 1424 1424 1425 1427 1428 1427 1427 1427 1427 1427 1427 1426 1426 1426 1425 1424 1424 1424 1423 1423 1422 1422 1422 1423 1423 1423 1423 1422 1422 1422 1422 1422 1422 1422 1422 1422 1421 1421 1420 1419 1418 1418 1416 1415 1414 1413 1413 1411 1410 1409 1408 1407 1407
1429 1428 1426 1424 1423 1422 1421 1420 1419 1418 1418 1417 1416 1416 1417 1418 1418 1418 1419 1419 1421 1422 1424 1425 1426 1426 1426 1426 1426 1426 1426 1426 1427 1428 1429 1429 1430 1431 1432 1431 1430 1430 1430 1429 1429 1429 1429 1428 1427 1426 1426 1426 1426 1425 1425 1426 1426 1426 1425 1425 1425 1425 1425 1425 1424 1424 1424 1424 1423 1423 1423 1423 1423 1423 1422 1421 1420 1419 1418 1417 1416 1414 1413 1412 1410 1409 1409
1435 1433 1431 1430 1429 1428 1427 1427 1426 1425 1425 1424 1424 1425 1426 1426 1425 1425 1425 1425 1426 1428 1429 1430 1430 1430 1430 1429 1429 1429 1430 1431 1432 1433 1434 1434 1434 1434 1435 1434 1434 1434 1433 1432 1432 1431 1431 1430 1429 1428 1428 1428 1428 1428 1429 1429 1429 1429 1428 1428 1427 1427 1426 1426 1426 1425 1425 1425 1425 1424 1424 1424 1424 1425 1425 1424 1423 1422 1421 1420 1419 1418 1416 1415 1413 1411 1410
1441 1439 1437 1436 1435 1434 1433 1433 1432 1432 1432 1432 1432 1432 1432 1432 1432 1431 1431 1431 1431 1432 1433 1433 1434 1434 1434 1433 1433 1433 1433 1434 1435 1437 1438 1438 1437 1437 1437 1436 1436 1436 1436 1435 1434 1434 1433 1432 1431 1431 1430 1430 1431 1431 1431 1431 1431 1431 1430 1430 1429 1428 1427 1427 1427 1427 1427 1426 1426 1425 1425 1425 1426 1426 1425 1425 1424 1424 1423 1422 1421 1421 1420 1418 1416 1414 1411
1445 1444 1442 1441 1440 1439 1439 1439 1438 1438 1438 1438 1438 1438 1438 1437 1437 1436 1436 1436 1436 1436 1436 1437 1437 1437 1437 1437 1437 1436 1437 1437 1438 1439 1440 1439 1439 1439 1439 1438 1438 1438 1438 1438 1437 1436 1435 1434 1433 1433 1433 1432 1432 1433 1433 1433 1433 1432 1432 1431 1430 1429 1429 1429 1428 1428 1428 1428 1427 1427 1427 1428 1427 1427 1426 1426 1425 1424 1424 1423 1423 1423 1423 1423 1421 1418 1414
1449 1448 1447 1446 1445 1444 1444 1443 1443 1443 1443 1443 1442 1442 1442 1441 1440 1440 1441 1440 1440 1440 1440 1441 1441 1441 1441 1441 1441 1440 1440 1440 1441 1441 1441 1441 1441 1441 1440 1440 1439 1439 1439 1440 1440 1439 1438 1436 1435 1435 1435 1434 1434 1434 1435 1435 1434 1434 1433 1432 1432 1431 1431 1431 1430 1430 1430 1430 1430 1430 1430 1430 1429 1429 1428 1427 1426 1425 1424 1424 1424 1424 1424 1424 1423 1422 1419
1453 1452 1451 1451 1450 1450 1449 1448 1447 1447 1447 1446 1446 1446 1445 1444 1444 1444 1444 1444 1444 1444 1444 1444 1444 1444 1444 1444 1444 1444 1443 1443 1443 1443 1443 1443 1443 1443 1442 1442 1442 1442 1442 1442 1442 1441 1440 1438 1437 1436 1436 1436 1436 1436 1436 1435 1435 1435 1434 1434 1433 1432 1432 1432 1432 1432 1432 1432 1433 1433 1432 1432 1431 1430 1429 1428 1427 1426 1426 1426 1426 1425 1425 1425 1424 1423 1421
1456 1456 1455 1454 1454 1453 1452 1452 1451 1450 1450 1449 1449 1449 1449 1448 1448 1447 1447 1447 1447 1448 1448 1447 1447 1447 1447 1447 1446 1446 1445 1445 1444 1444 1444 1444 1444 1444 1444 1443 1443 1443 1443 1443 1442 1442 1441 1440 1439 1437 1437 1437 1437 1437 1437 1437 1437 1436 1436 1435 1435 1435 1434 1433 1433 1434 1434 1434 1434 1434 1433 1433 1432 1430 1429 1428 1427 1426 1426 1427 1428 1428 1428 1427 1426 1424 1422